User: anonymous   Login
Location: Unspecified
(0.0000°N, 0.0000°E)
Time: 02:11:05
(UTC+00:00)
Language:

STARLINK-32145 - Orbit

View from above orbital plane
View from above orbital plane
View from above satellite
View from above satellite

Ground track
Ground track

The orbit is defined by the following mean orbital elements,

1 60154U          26145.46628701 +.00000000 +00000-0 +80784-5 0 00003
2 60154  53.1617 323.1141 0001069 101.0001 259.1120 15.30191587    05
Epoch (UTC): 25 May 2026 11:11:27
Eccentricity: 0.0001069
inclination: 53.1617°
perigee height: 475 km
apogee height: 476 km
right ascension of ascending node: 323.1141°
argument of perigee: 101.0001°
revolutions per day: 15.30191587
mean anomaly at epoch: 259.1120°

The dashed part of the orbit path shows where the satellite is in the earth's shadow,  

DLR